DW8838 Alfreton UK current weather conditions

sailwx.info

Wind from 146 at 1 knots gusting 2

Air temperature 14.4° C
Dewpoint 13.2° C

Last reported at 2019-Aug-23 04:48 UTC.
Time now 2019-Aug-23 05:18 UTC

Location: N 53°06' W 001°23'.
View on Google Maps.

See reports from other nearby stations

  
Tides and Currents Weather Stations Pressure Air Temp Water Temp Dewpoint Dewpoint Depression Visibility Wind Speed Wind Dir Waves Ship Positions
date/time (UTC)wind fromknots sea level pressurealtimeterstation pressurevisibilityair tempwater tempwave heightnotes
2019-Aug-23 04:48 146 1 gusting 2 14.4
2019-Aug-23 04:43 152 14.4
2019-Aug-23 04:38 204 0 gusting 2 14.4
2019-Aug-23 04:33 179 0 gusting 2 14.4
2019-Aug-23 04:18 159 0 gusting 2 14.4
2019-Aug-23 04:13 208 14.4
2019-Aug-23 04:08 158 14.4
2019-Aug-23 04:03 167 0 gusting 2 15.0
2019-Aug-23 03:48 136 15.0
2019-Aug-23 03:43 173 15.0
2019-Aug-23 03:38 156 0 gusting 2 15.0
2019-Aug-23 03:33 153 15.6
2019-Aug-23 03:18 196 2 gusting 6 15.6
2019-Aug-23 03:13 226 2 gusting 6 15.6
2019-Aug-23 03:08 211 2 gusting 6 16.1
2019-Aug-23 03:03 204 3 gusting 6 16.1
2019-Aug-23 02:48 224 2 gusting 7 16.1
2019-Aug-23 02:43 197 2 gusting 5 16.1
2019-Aug-23 02:38 204 2 gusting 6 16.1
2019-Aug-23 02:33 211 1 gusting 4 16.1
2019-Aug-23 02:18 237 0 gusting 2 16.1
2019-Aug-23 02:13 212 0 gusting 6 16.1
2019-Aug-23 02:08 204 1 gusting 8 16.1
2019-Aug-23 02:03 234 2 gusting 8 16.1
2019-Aug-23 01:48 206 1 gusting 4 16.1
2019-Aug-23 01:43 254 1 gusting 4 16.1
2019-Aug-23 01:38 203 0 gusting 2 16.1
2019-Aug-23 01:33 198 1 gusting 5 16.1
2019-Aug-23 01:18 238 0 gusting 4 16.1
2019-Aug-23 01:13 247 0 gusting 2 16.7
2019-Aug-23 01:08 233 0 gusting 2 16.7
2019-Aug-23 01:03 246 0 gusting 6 16.7
2019-Aug-23 00:48 262 0 gusting 2 16.7
2019-Aug-23 00:43 218 1 gusting 5 16.7
2019-Aug-23 00:38 230 0 gusting 2 16.7
2019-Aug-23 00:33 221 0 gusting 4 16.7
2019-Aug-23 00:18 225 0 gusting 2 16.1
2019-Aug-23 00:13 190 0 gusting 2 16.1
2019-Aug-23 00:08 225 16.1
2019-Aug-23 00:03 230 0 gusting 2 16.7
2019-Aug-22 23:48 227 16.7
2019-Aug-22 23:43 216 0 gusting 5 16.7
2019-Aug-22 23:38 233 0 gusting 1 16.7
2019-Aug-22 23:33 215 0 gusting 2 16.7
2019-Aug-22 23:18 238 1 gusting 4 16.7
2019-Aug-22 23:13 222 2 gusting 5 16.7
2019-Aug-22 23:08 155 1 gusting 5 16.7
2019-Aug-22 23:03 210 0 gusting 2 16.7
2019-Aug-22 22:48 212 1 gusting 5 16.7
2019-Aug-22 22:43 207 16.7
2019-Aug-22 22:38 203 16.7
2019-Aug-22 22:33 211 0 gusting 2 16.7
2019-Aug-22 22:18 156 0 gusting 2 16.7
2019-Aug-22 22:13 241 0 gusting 1 16.7
2019-Aug-22 22:08 223 0 gusting 1 17.2
2019-Aug-22 22:03 228 0 gusting 6 17.2
2019-Aug-22 21:48 224 1 gusting 4 17.2
2019-Aug-22 21:43 214 1 gusting 4 17.2
2019-Aug-22 21:38 252 17.2
2019-Aug-22 21:33 215 17.2
2019-Aug-22 21:18 212 0 gusting 2 17.2
2019-Aug-22 21:13 175 1 gusting 2 17.8
2019-Aug-22 21:08 178 0 gusting 2 17.8
2019-Aug-22 21:03 206 1 gusting 6 17.8
2019-Aug-22 20:48 182 1 gusting 4 17.8
2019-Aug-22 20:43 186 0 gusting 7 17.8
2019-Aug-22 20:38 213 3 gusting 7 17.8
2019-Aug-22 20:33 202 3 gusting 8 17.8
2019-Aug-22 20:18 219 1 gusting 5 17.8
2019-Aug-22 20:13 230 2 gusting 7 18.3
2019-Aug-22 20:08 224 1 gusting 6 18.3
2019-Aug-22 20:03 229 1 gusting 6 18.3
2019-Aug-22 19:48 220 1 gusting 2 18.3
2019-Aug-22 19:43 220 1 gusting 4 18.3
2019-Aug-22 19:38 197 2 gusting 7 18.3
2019-Aug-22 19:33 217 1 gusting 10 18.3
2019-Aug-22 19:18 241 2 gusting 5 18.9
2019-Aug-22 19:13 229 2 gusting 6 18.9
2019-Aug-22 19:08 198 3 gusting 7 18.9
2019-Aug-22 19:03 212 2 gusting 10 18.9
2019-Aug-22 18:48 218 3 gusting 12 18.9
2019-Aug-22 18:43 218 3 gusting 6 18.9
2019-Aug-22 18:38 211 4 gusting 8 18.9
2019-Aug-22 18:33 213 2 gusting 11 18.9
2019-Aug-22 18:18 209 6 gusting 13 19.4
2019-Aug-22 18:13 219 4 gusting 6 19.4
2019-Aug-22 18:08 220 4 gusting 10 19.4
2019-Aug-22 18:03 206 4 gusting 14 19.4
2019-Aug-22 17:48 204 4 gusting 7 19.4
2019-Aug-22 17:43 204 6 gusting 13 19.4
2019-Aug-22 17:38 227 4 gusting 12 19.4
2019-Aug-22 17:33 209 4 gusting 13 20.0
2019-Aug-22 17:18 204 5 gusting 10 20.0
2019-Aug-22 17:13 211 4 gusting 10 20.0
2019-Aug-22 17:08 222 5 gusting 12 20.0
2019-Aug-22 17:03 214 6 gusting 13 20.0
2019-Aug-22 16:48 208 5 gusting 12 20.0
2019-Aug-22 16:43 209 5 gusting 11 20.0
2019-Aug-22 16:38 218 4 gusting 10 20.0
2019-Aug-22 16:33 228 4 gusting 11 20.0
2019-Aug-22 16:18 235 2 gusting 7 20.0
2019-Aug-22 16:13 212 2 gusting 7 20.0
2019-Aug-22 16:08 244 2 gusting 10 20.0
2019-Aug-22 16:03 227 2 gusting 13 20.0
2019-Aug-22 15:48 209 4 gusting 12 20.0
2019-Aug-22 15:43 229 6 gusting 13 20.0
2019-Aug-22 15:38 226 4 gusting 10 20.0
2019-Aug-22 15:33 221 3 gusting 10 20.0
2019-Aug-22 15:18 223 2 gusting 10 20.6
2019-Aug-22 15:13 207 4 gusting 8 20.6
2019-Aug-22 15:08 204 5 gusting 17 20.6
2019-Aug-22 15:03 222 5 gusting 13 20.6
2019-Aug-22 14:48 205 5 gusting 12 20.0
2019-Aug-22 14:43 200 5 gusting 11 19.4
2019-Aug-22 14:38 218 6 gusting 10 20.0
2019-Aug-22 14:18 210 6 gusting 14 19.4
2019-Aug-22 14:13 213 4 gusting 10 18.9
2019-Aug-22 14:08 223 6 gusting 12 18.9
2019-Aug-22 14:03 234 5 gusting 17 19.4
2019-Aug-22 13:48 204 5 gusting 14 20.0
2019-Aug-22 13:43 195 4 gusting 11 20.0
2019-Aug-22 13:38 203 5 gusting 13 19.4
2019-Aug-22 13:33 198 6 gusting 12 19.4
2019-Aug-22 13:18 215 2 gusting 8 19.4
2019-Aug-22 13:13 217 1 gusting 5 18.9
2019-Aug-22 13:08 246 6 gusting 14 18.9